Location: Lecco
(45.8566°N, 9.3977°E)
Time: 07:51:33
(UTC+02:00)

A-11 Canister half - Pass Details

Date: 20 August 2020
Orbit: 1514 x 1686 km, 47.2° (Epoch: 21 September)

Event Time Altitude Azimuth Distance (km) Brightness Sun altitude
Rises 23:16:05 0° 293° (WNW) 4,822 12.5 -25.2°
Reaches altitude 10° 23:19:30 10° 284° (WNW) 3,858 11.7 -25.5°
Maximum altitude 23:28:01 34° 225° (SW) 2,472 9.9 -26.3°
Enters shadow 23:30:57 29° 195° (SSW) 2,689 9.9 -26.6°
